CW7077 Weather Reports


Display with metric or nautical units.
time (UTC)temp
F
wind
direction
speed
MPH
gust
MPH
rain 1hr
in
rain 24hr
in
rain mn
in
humidity
%
barometer
mb
20260504223848 76 194 0.0 0.0 0.00 0.00 0.00 31 1014.5
20260504223747 76 135 0.0 0.0 0.00 0.00 0.00 31 1014.6
20260504223648 76 155 0.0 0.0 0.00 0.00 0.00 31 1014.6
20260504223549 76 155 0.0 0.0 0.00 0.00 0.00 30 1014.6
20260504223451 76 153 0.0 0.0 0.00 0.00 0.00 30 1014.6
20260504223338 77 130 0.0 0.0 0.00 0.00 0.00 30 1014.5
20260504223240 77 170 0.0 0.0 0.00 0.00 0.00 30 1014.5
20260504223141 77 165 0.0 0.0 0.00 0.00 0.00 30 1014.5
20260504223101 76 163 0.0 0.0 0.00 0.00 0.00 30 1014.2
20260504223042 77 184 0.0 0.0 0.00 0.00 0.00 31 1014.5
20260504222944 77 163 0.0 0.0 0.00 0.00 0.00 30 1014.5
20260504222904 77 178 0.0 0.0 0.00 0.00 0.00 32 1014.5
20260504222744 77 157 0.0 0.0 0.00 0.00 0.00 30 1014.5
20260504222648 77 165 0.0 0.0 0.00 0.00 0.00 30 1014.5
20260504222548 77 124 0.0 0.0 0.00 0.00 0.00 30 1014.5
20260504222448 77 178 0.0 0.0 0.00 0.00 0.00 30 1014.5
20260504222348 77 178 0.0 0.0 0.00 0.00 0.00 31 1014.5
20260504222308 77 180 0.0 0.0 0.00 0.00 0.00 30 1014.5
20260504222147 77 160 0.0 0.0 0.00 0.00 0.00 31 1014.5
20260504222047 77 138 0.0 0.0 0.00 0.00 0.00 31 1014.6
20260504221944 77 142 0.0 0.0 0.00 0.00 0.00 30 1014.5
20260504221850 77 155 0.0 0.0 0.00 0.00 0.00 31 1014.6
20260504221751 77 185 0.0 0.0 0.00 0.00 0.00 31 1014.5
20260504221713 77 185 0.0 0.0 0.00 0.00 0.00 31 1014.6
20260504221551 77 147 0.0 0.0 0.00 0.00 0.00 30 1014.5
20260504221536 76 148 0.0 0.0 0.00 0.00 0.00 30 1014.2
20260504221452 77 192 0.0 0.0 0.00 0.00 0.00 30 1014.6
20260504221355 77 184 0.0 0.0 0.00 0.00 0.00 30 1014.5
20260504221238 77 159 0.0 0.0 0.00 0.00 0.00 31 1014.6
20260504221139 77 149 0.0 0.0 0.00 0.00 0.00 30 1014.6
20260504221040 77 142 0.0 0.0 0.00 0.00 0.00 30 1014.5
20260504220941 77 166 0.0 0.0 0.00 0.00 0.00 30 1014.6
20260504220902 77 167 0.0 0.0 0.00 0.00 0.00 29 1014.5
20260504220742 77 168 0.0 0.0 0.00 0.00 0.00 29 1014.6
20260504220643 77 150 0.0 0.0 0.00 0.00 0.00 29 1014.6
20260504220544 77 204 0.0 0.0 0.00 0.00 0.00 29 1014.5
20260504220448 77 166 0.0 0.0 0.00 0.00 0.00 29 1014.5
20260504220348 77 128 0.0 0.0 0.00 0.00 0.00 29 1014.6
20260504220313 78 145 0.0 0.0 0.00 0.00 0.00 30 1014.5
20260504220238 78 167 0.0 0.0 0.00 0.00 0.00 30 1014.5
20260504215944 78 257 0.0 0.0 0.00 0.00 0.00 30 1014.6
20260504215905 78 179 0.0 0.0 0.00 0.00 0.00 30 1014.5
20260504215748 78 180 0.0 0.0 0.00 0.00 0.00 30 1014.6
20260504215648 78 138 0.0 0.0 0.00 0.00 0.00 30 1014.6
20260504215548 78 174 0.0 0.0 0.00 0.00 0.00 30 1014.5
20260504215508 78 217 0.0 0.0 0.00 0.00 0.00 31 1014.5
20260504215345 78 217 0.0 0.0 0.00 0.00 0.00 31 1014.5
20260504215244 78 131 0.0 0.0 0.00 0.00 0.00 30 1014.5
20260504215138 78 167 0.0 0.0 0.00 0.00 0.00 30 1014.6
20260504215041 78 172 0.0 0.0 0.00 0.00 0.00 31 1014.6
20260504214942 78 173 0.0 0.0 0.00 0.00 0.00 30 1014.5
20260504214842 78 181 0.0 0.0 0.00 0.00 0.00 30 1014.5
20260504214803 78 169 0.0 0.0 0.00 0.00 0.00 31 1014.6
20260504214642 78 163 0.0 0.0 0.00 0.00 0.00 31 1014.6
20260504214541 78 146 0.0 0.0 0.00 0.00 0.00 32 1014.5
20260504214514 77 198 0.0 0.0 0.00 0.00 0.00 32 1014.2
20260504214440 78 176 0.0 0.0 0.00 0.00 0.00 32 1014.5
20260504214341 78 179 0.0 0.0 0.00 0.00 0.00 32 1014.5
20260504214242 78 130 0.0 0.0 0.00 0.00 0.00 32 1014.5
20260504214202 78 171 0.0 0.0 0.00 0.00 0.00 32 1014.6
20260504214041 78 165 0.0 0.0 0.00 0.00 0.00 32 1014.6
20260504213941 78 178 0.0 0.0 0.00 0.00 0.00 32 1014.6
20260504213842 78 196 0.0 0.0 0.00 0.00 0.00 32 1014.7
20260504213804 78 130 0.0 0.0 0.00 0.00 0.00 32 1014.6
20260504213704 78 188 0.0 0.0 0.00 0.00 0.00 32 1014.6
20260504213548 78 111 0.0 0.0 0.00 0.00 0.00 32 1014.7
20260504213449 78 111 0.0 0.0 0.00 0.00 0.00 32 1014.6
20260504213350 78 136 0.0 0.0 0.00 0.00 0.00 32 1014.7
20260504213252 78 200 0.0 0.0 0.00 0.00 0.00 31 1014.6
20260504213153 78 206 0.0 0.0 0.00 0.00 0.00 32 1014.6
20260504213054 78 164 0.0 0.0 0.00 0.00 0.00 31 1014.6
20260504213018 78 166 0.0 0.0 0.00 0.00 0.00 31 1014.4
20260504212939 78 206 0.0 0.0 0.00 0.00 0.00 31 1014.6
20260504212838 78 161 0.0 0.0 0.00 0.00 0.00 32 1014.7
20260504212738 78 186 0.0 0.0 0.00 0.00 0.00 31 1014.7
20260504212639 78 163 0.0 0.0 0.00 0.00 0.00 31 1014.7
20260504212556 78 155 0.0 0.0 0.00 0.00 0.00 31 1014.7
20260504212455 78 159 0.0 0.0 0.00 0.00 0.00 31 1014.7
20260504212354 78 150 0.0 0.0 0.00 0.00 0.00 32 1014.7
20260504212252 78 194 0.0 0.0 0.00 0.00 0.00 31 1014.7
20260504212155 78 199 0.0 0.0 0.00 0.00 0.00 33 1014.7
20260504212054 78 200 0.0 0.0 0.00 0.00 0.00 32 1014.7
20260504211954 78 150 0.0 0.0 0.00 0.00 0.00 32 1014.7
20260504211852 78 148 0.0 0.0 0.00 0.00 0.00 32 1014.6
20260504211752 78 167 0.0 0.0 0.00 0.00 0.00 32 1014.7
20260504211651 78 165 0.0 0.0 0.00 0.00 0.00 32 1014.7
20260504211611 78 103 0.0 0.0 0.00 0.00 0.00 32 1014.7
20260504211518 78 178 0.0 0.0 0.00 0.00 0.00 33 1014.4
20260504211454 78 178 0.0 0.0 0.00 0.00 0.00 33 1014.7
20260504211353 78 219 0.0 0.0 0.00 0.00 0.00 33 1014.7
20260504211252 78 167 0.0 0.0 0.00 0.00 0.00 32 1014.6
20260504211152 78 187 0.0 0.0 0.00 0.00 0.00 32 1014.6
20260504211052 78 157 0.0 0.0 0.00 0.00 0.00 32 1014.6
20260504210952 78 174 0.0 0.0 0.00 0.00 0.00 32 1014.6
20260504210911 78 174 0.0 0.0 0.00 0.00 0.00 31 1014.6
20260504210753 78 128 0.0 0.0 0.00 0.00 0.00 32 1014.6
20260504210653 78 123 0.0 0.0 0.00 0.00 0.00 31 1014.7
20260504210553 79 204 0.0 0.0 0.00 0.00 0.00 32 1014.7
20260504210453 79 180 0.0 0.0 0.00 0.00 0.00 33 1014.7
20260504210353 79 183 0.0 0.0 0.00 0.00 0.00 32 1014.6
20260504210251 79 172 0.0 0.0 0.00 0.00 0.00 32 1014.6
20260504210221 79 173 0.0 0.0 0.00 0.00 0.00 32 1014.6
20260504210031 78 229 0.0 0.0 0.00 0.00 0.00 32 1014.3
20260504205941 79 190 0.0 0.0 0.00 0.00 0.00 31 1014.6
20260504205857 79 168 0.0 0.0 0.00 0.00 0.00 31 1014.6
20260504205753 79 118 0.0 0.0 0.00 0.00 0.00 30 1014.7
20260504205654 79 119 0.0 0.0 0.00 0.00 0.00 31 1014.7
20260504205552 79 119 0.0 0.0 0.00 0.00 0.00 31 1014.7
20260504205456 79 173 0.0 0.0 0.00 0.00 0.00 31 1014.8
20260504205355 79 188 0.0 0.0 0.00 0.00 0.00 32 1014.8
20260504205254 79 195 0.0 0.0 0.00 0.00 0.00 33 1014.8
20260504205153 79 127 0.0 0.0 0.00 0.00 0.00 32 1014.8
20260504205051 80 189 0.0 0.0 0.00 0.00 0.00 33 1014.8
20260504204950 79 144 0.0 0.0 0.00 0.00 0.00 34 1014.8
20260504204853 79 174 0.0 0.0 0.00 0.00 0.00 33 1014.7
20260504204752 79 172 0.0 0.0 0.00 0.00 0.00 33 1014.7
20260504204651 79 168 0.0 0.0 0.00 0.00 0.00 33 1014.8
20260504204550 79 36 0.0 0.0 0.00 0.00 0.00 33 1014.8
20260504204520 79 19 0.0 0.0 0.00 0.00 0.00 33 1014.6
20260504204448 79 24 0.0 0.0 0.00 0.00 0.00 33 1014.8
20260504204347 79 24 0.0 0.0 0.00 0.00 0.00 32 1014.8
20260504204246 79 175 0.0 0.0 0.00 0.00 0.00 32 1014.9
20260504204150 79 176 0.0 0.0 0.00 0.00 0.00 32 1014.8
20260504204109 79 168 0.0 0.0 0.00 0.00 0.00 32 1014.8
20260504203948 79 167 0.0 0.0 0.00 0.00 0.00 33 1014.9
20260504203847 79 167 0.0 0.0 0.00 0.00 0.00 33 1014.9
20260504203746 79 150 0.0 0.0 0.00 0.00 0.00 33 1014.9
20260504203646 79 179 0.0 0.0 0.00 0.00 0.00 32 1015.0
20260504203546 79 174 0.0 0.0 0.00 0.00 0.00 32 1014.9
20260504203450 79 144 0.0 0.0 0.00 0.00 0.00 32 1014.9
20260504203349 79 194 0.0 0.0 0.00 0.00 0.00 32 1014.9
20260504203249 79 156 0.0 0.0 0.00 0.00 0.00 32 1015.0
20260504203148 79 183 0.0 0.0 0.00 0.00 0.00 33 1015.0
20260504203048 79 187 0.0 0.0 0.00 0.00 0.00 32 1015.0
20260504203003 78 188 0.0 0.0 0.00 0.00 0.00 33 1014.8
20260504202948 79 188 0.0 0.0 0.00 0.00 0.00 33 1015.1
20260504202851 79 187 0.0 0.0 0.00 0.00 0.00 32 1015.0
20260504202749 79 188 0.0 0.0 0.00 0.00 0.00 32 1015.1
20260504202648 79 187 0.0 0.0 0.00 0.00 0.00 31 1015.1
20260504202547 79 145 0.0 0.0 0.00 0.00 0.00 32 1015.1
20260504202446 79 174 0.0 0.0 0.00 0.00 0.00 32 1015.2
20260504202346 79 138 0.0 0.0 0.00 0.00 0.00 32 1015.2
20260504202245 79 202 0.0 0.0 0.00 0.00 0.00 33 1015.2
20260504202149 79 202 0.0 0.0 0.00 0.00 0.00 32 1015.1
20260504202107 79 191 0.0 0.0 0.00 0.00 0.00 33 1015.2
20260504201946 79 190 0.0 0.0 0.00 0.00 0.00 33 1015.2
20260504201845 79 185 0.0 0.0 0.00 0.00 0.00 33 1015.2
20260504201745 79 117 0.0 0.0 0.00 0.00 0.00 32 1015.1
20260504201644 79 162 0.0 0.0 0.00 0.00 0.00 33 1015.2
20260504201543 79 169 0.0 0.0 0.00 0.00 0.00 33 1015.2
20260504201512 78 168 0.0 0.0 0.00 0.00 0.00 33 1014.9
20260504201447 79 162 0.0 0.0 0.00 0.00 0.00 33 1015.2
20260504201347 79 162 0.0 0.0 0.00 0.00 0.00 33 1015.1
20260504201244 79 135 0.0 0.0 0.00 0.00 0.00 32 1015.1
20260504201143 79 160 0.0 0.0 0.00 0.00 0.00 32 1015.2
20260504201043 79 169 0.0 0.0 0.00 0.00 0.00 33 1015.2
20260504200942 79 188 0.0 0.0 0.00 0.00 0.00 33 1015.2
20260504200841 79 145 0.0 0.0 0.00 0.00 0.00 32 1015.2
20260504200744 79 235 0.0 0.0 0.00 0.00 0.00 32 1015.1
20260504200644 79 153 0.0 0.0 0.00 0.00 0.00 32 1015.3
20260504200542 79 171 0.0 0.0 0.00 0.00 0.00 32 1015.2
20260504200503 79 157 0.0 0.0 0.00 0.00 0.00 32 1015.3
20260504200340 79 215 0.0 0.0 0.00 0.00 0.00 32 1015.2
20260504200240 79 321 0.0 0.0 0.00 0.00 0.00 31 1015.2
20260504200210 79 321 0.0 0.0 0.00 0.00 0.00 31 1015.2
20260504200015 78 321 0.0 0.0 0.00 0.00 0.00 31 1015.0
20260504195937 79 225 0.0 0.0 0.00 0.00 0.00 31 1015.2
20260504195856 79 153 0.0 0.0 0.00 0.00 0.00 31 1015.2
20260504195756 79 153 0.0 0.0 0.00 0.00 0.00 31 1015.3
20260504195655 79 152 0.0 0.0 0.00 0.00 0.00 31 1015.3
20260504195555 79 183 0.0 0.0 0.00 0.00 0.00 32 1015.3
20260504195439 79 184 0.0 0.0 0.00 0.00 0.00 34 1015.3
20260504195338 79 193 0.0 0.0 0.00 0.00 0.00 32 1015.4
20260504195238 78 193 0.0 0.0 0.00 0.00 0.00 32 1015.4
20260504195137 78 180 0.0 0.0 0.00 0.00 0.00 32 1015.4
20260504195056 78 112 0.0 0.0 0.00 0.00 0.00 32 1015.4
20260504194955 79 158 0.0 0.0 0.00 0.00 0.00 33 1015.4
20260504194855 78 117 0.0 0.0 0.00 0.00 0.00 34 1015.4
20260504194737 78 139 0.0 0.0 0.00 0.00 0.00 33 1015.4
20260504194657 78 115 0.0 0.0 0.00 0.00 0.00 33 1015.5
20260504194615 78 148 0.0 0.0 0.00 0.00 0.00 31 1015.4
20260504194515 78 195 0.0 0.0 0.00 0.00 0.00 31 1015.2
20260504194454 79 195 0.0 0.0 0.00 0.00 0.00 33 1015.5
20260504194412 78 188 0.0 0.0 0.00 0.00 0.00 34 1015.5
20260504194250 78 184 0.0 0.0 0.00 0.00 0.00 33 1015.4
20260504194150 78 184 0.0 0.0 0.00 0.00 0.00 32 1015.4
20260504194048 78 170 0.0 0.0 0.00 0.00 0.00 33 1015.4
20260504193951 78 163 0.0 0.0 0.00 0.00 0.00 33 1015.4
20260504193910 78 149 0.0 0.0 0.00 0.00 0.00 32 1015.4
20260504193749 78 149 0.0 0.0 0.00 0.00 0.00 33 1015.5
20260504193648 78 173 0.0 0.0 0.00 0.00 0.00 33 1015.5
20260504193547 78 173 0.0 0.0 0.00 0.00 0.00 33 1015.5
20260504193507 78 172 0.0 0.0 0.00 0.00 0.00 33 1015.5
20260504193405 78 172 0.0 0.0 0.00 0.00 0.00 35 1015.5
20260504193243 78 173 0.0 0.0 0.00 0.00 0.00 35 1015.5
20260504193202 78 173 0.0 0.0 0.00 0.00 0.00 34 1015.6
20260504193113 78 171 0.0 0.0 0.00 0.00 0.00 34 1015.3
20260504193045 78 171 0.0 0.0 0.00 0.00 0.00 34 1015.6
20260504192944 78 162 0.0 0.0 0.00 0.00 0.00 33 1015.6
20260504192844 78 169 0.0 0.0 0.00 0.00 0.00 32 1015.6
20260504192742 78 163 0.0 0.0 0.00 0.00 0.00 33 1015.6
20260504192641 78 145 0.0 0.0 0.00 0.00 0.00 34 1015.6
20260504192539 78 194 0.0 0.0 0.00 0.00 0.00 33 1015.6
20260504192440 78 153 0.0 0.0 0.00 0.00 0.00 35 1015.6
20260504192344 78 174 0.0 0.0 0.00 0.00 0.00 35 1015.5
20260504192241 78 173 0.0 0.0 0.00 0.00 0.00 35 1015.6
20260504192140 78 173 0.0 0.0 0.00 0.00 0.00 35 1015.6
20260504192040 77 173 0.0 0.0 0.00 0.00 0.00 35 1015.6
20260504191939 77 180 0.0 0.0 0.00 0.00 0.00 36 1015.6
20260504191858 77 180 0.0 0.0 0.00 0.00 0.00 35 1015.6
20260504191817 77 196 0.0 0.0 0.00 0.00 0.00 34 1015.7
20260504191640 77 140 0.0 0.0 0.00 0.00 0.00 34 1015.8
20260504191557 78 138 0.0 0.0 0.00 0.00 0.00 34 1015.8
20260504191513 77 123 0.0 0.0 0.00 0.00 0.00 34 1015.6
20260504191456 78 136 0.0 0.0 0.00 0.00 0.00 34 1015.8
20260504191415 78 156 0.0 0.0 0.00 0.00 0.00 35 1015.9
20260504191252 78 202 0.0 0.0 0.00 0.00 0.00 35 1015.8
20260504191151 78 75 0.0 0.0 0.00 0.00 0.00 33 1015.8
20260504191050 78 114 0.0 0.0 0.00 0.00 0.00 34 1015.8
20260504190947 78 175 0.0 0.0 0.00 0.00 0.00 34 1015.8
20260504190851 78 178 0.0 0.0 0.00 0.00 0.00 35 1015.8
20260504190810 78 174 0.0 0.0 0.00 0.00 0.00 35 1015.9
20260504190648 78 126 0.0 0.0 0.00 0.00 0.00 35 1015.9
20260504190546 78 224 0.0 0.0 0.00 0.00 0.00 34 1015.9
20260504190446 78 179 0.0 0.0 0.00 0.00 0.00 34 1015.9
20260504190337 78 179 0.0 0.0 0.00 0.00 0.00 34 1015.9
20260504190300 78 179 0.0 0.0 0.00 0.00 0.00 34 1015.9
20260504190230 78 179 0.0 0.0 0.00 0.00 0.00 34 1015.9
20260504190016 78 180 0.0 0.0 0.00 0.00 0.00 33 1016.0
20260504185914 78 177 0.0 0.0 0.00 0.00 0.00 33 1016.0
20260504185753 78 177 0.0 0.0 0.00 0.00 0.00 32 1016.0
20260504185652 78 171 0.0 0.0 0.00 0.00 0.00 33 1016.0
20260504185552 78 154 0.0 0.0 0.00 0.00 0.00 33 1016.0
20260504185455 78 121 0.0 0.0 0.00 0.00 0.00 33 1016.1
20260504185355 78 310 0.0 0.0 0.00 0.00 0.00 34 1016.1
20260504185253 78 231 0.0 0.0 0.00 0.00 0.00 34 1016.0
20260504185153 78 211 0.0 0.0 0.00 0.00 0.00 35 1016.0
20260504185053 78 263 0.0 0.0 0.00 0.00 0.00 36 1016.0
20260504184952 78 263 0.0 0.0 0.00 0.00 0.00 35 1016.0
20260504184851 78 218 0.0 0.0 0.00 0.00 0.00 36 1016.0
20260504184814 77 150 0.0 0.0 0.00 0.00 0.00 36 1016.0
20260504184653 77 150 0.0 0.0 0.00 0.00 0.00 36 1016.1
20260504184553 77 150 0.0 0.0 0.00 0.00 0.00 35 1016.1
20260504184537 77 160 0.0 0.0 0.00 0.00 0.00 35 1015.8
20260504184453 77 160 0.0 0.0 0.00 0.00 0.00 35 1016.1
20260504184353 77 290 0.0 0.0 0.00 0.00 0.00 35 1016.1
20260504184312 77 290 0.0 0.0 0.00 0.00 0.00 33 1016.1
20260504184210 77 288 0.0 0.0 0.00 0.00 0.00 33 1016.1
20260504184049 78 346 0.0 0.0 0.00 0.00 0.00 33 1016.1
20260504183952 78 174 0.0 0.0 0.00 0.00 0.00 33 1016.2
20260504183852 78 174 0.0 0.0 0.00 0.00 0.00 35 1016.2
20260504183750 77 173 0.0 0.0 0.00 0.00 0.00 35 1016.3
20260504183648 77 173 0.0 0.0 0.00 0.00 0.00 35 1016.3
20260504183548 77 173 0.0 0.0 0.00 0.00 0.00 36 1016.3
20260504183448 77 173 0.0 0.0 0.00 0.00 0.00 37 1016.3
20260504183349 77 171 0.0 0.0 0.00 0.00 0.00 36 1016.3
20260504183248 76 171 0.0 0.0 0.00 0.00 0.00 36 1016.3
20260504183147 76 171 0.0 0.0 0.00 0.00 0.00 35 1016.3
20260504183106 76 173 0.0 0.0 0.00 0.00 0.00 35 1016.3
20260504183012 76 171 0.0 0.0 0.00 0.00 0.00 35 1016.1
20260504182945 76 136 0.0 0.0 0.00 0.00 0.00 38 1016.3
20260504182845 76 149 0.0 0.0 0.00 0.00 0.00 36 1016.4
20260504182745 76 143 0.0 0.0 0.00 0.00 0.00 36 1016.3
20260504182649 76 80 0.0 0.0 0.00 0.00 0.00 36 1016.3
20260504182548 76 195 0.0 0.0 0.00 0.00 0.00 35 1016.3
20260504182507 76 237 0.0 0.0 0.00 0.00 0.00 35 1016.3
20260504182405 76 203 0.0 0.0 0.00 0.00 0.00 34 1016.3
20260504182243 76 188 0.0 0.0 0.00 0.00 0.00 34 1016.4
20260504182142 76 172 0.0 0.0 0.00 0.00 0.00 33 1016.4
20260504182041 76 144 0.0 0.0 0.00 0.00 0.00 33 1016.3
20260504182001 77 202 0.0 0.0 0.00 0.00 0.00 33 1016.3
20260504181858 77 207 0.0 0.0 0.00 0.00 0.00 34 1016.3
20260504181740 77 137 0.0 0.0 0.00 0.00 0.00 34 1016.3
20260504181640 77 149 0.0 0.0 0.00 0.00 0.00 35 1016.4
20260504181559 77 147 0.0 0.0 0.00 0.00 0.00 35 1016.4
20260504181519 76 76 0.0 0.0 0.00 0.00 0.00 34 1016.2
20260504181438 77 76 0.0 0.0 0.00 0.00 0.00 33 1016.5
20260504181357 77 76 0.0 0.0 0.00 0.00 0.00 33 1016.5
20260504181255 76 155 0.0 0.0 0.00 0.00 0.00 35 1016.5
20260504181154 76 259 0.0 0.0 0.00 0.00 0.00 35 1016.4
20260504181038 76 294 0.0 0.0 0.00 0.00 0.00 35 1016.4
20260504180938 76 53 0.0 0.0 0.00 0.00 0.00 35 1016.5
20260504180857 76 53 0.0 0.0 0.00 0.00 0.00 35 1016.4
20260504180756 76 243 0.0 0.0 0.00 0.00 0.00 36 1016.4
20260504180715 76 206 0.0 0.0 0.00 0.00 0.00 35 1016.4
20260504180553 76 158 0.0 0.0 0.00 0.00 0.00 36 1016.4
20260504180453 75 140 0.0 0.0 0.00 0.00 0.00 36 1016.4
20260504180356 75 183 0.0 0.0 0.00 0.00 0.00 36 1016.4
20260504180255 75 175 0.0 0.0 0.00 0.00 0.00 34 1016.4
20260504180222 75 175 0.0 0.0 0.00 0.00 0.00 34 1016.4
20260504180034 75 175 0.0 0.0 0.00 0.00 0.00 34 1016.2
20260504175949 75 175 0.0 0.0 0.00 0.00 0.00 34 1016.4
20260504175845 75 175 0.0 0.0 0.00 0.00 0.00 34 1016.4
20260504175805 75 175 0.0 0.0 0.00 0.00 0.00 34 1016.5
20260504175648 75 175 0.0 0.0 0.00 0.00 0.00 34 1016.4
20260504175547 75 171 0.0 0.0 0.00 0.00 0.00 33 1016.5
20260504175506 75 167 0.0 0.0 0.00 0.00 0.00 34 1016.5
20260504175345 76 161 0.0 0.0 0.00 0.00 0.00 34 1016.5
20260504175245 75 161 0.0 0.0 0.00 0.00 0.00 35 1016.5
20260504175144 75 93 0.0 0.0 0.00 0.00 0.00 36 1016.6
20260504175044 75 90 0.0 0.0 0.00 0.00 0.00 34 1016.6
20260504174946 75 88 0.0 0.0 0.00 0.00 0.00 34 1016.6
20260504174846 76 136 0.0 0.0 0.00 0.00 0.00 34 1016.6
20260504174745 76 181 0.0 0.0 0.00 0.00 0.00 34 1016.6
20260504174646 76 155 0.0 0.0 0.00 0.00 0.00 35 1016.6
20260504174544 76 225 0.0 0.0 0.00 0.00 0.00 35 1016.6
20260504174522 75 220 0.0 0.0 0.00 0.00 0.00 35 1016.5
20260504174445 76 186 0.0 0.0 0.00 0.00 0.00 36 1016.6
20260504174404 76 119 0.0 0.0 0.00 0.00 0.00 36 1016.6
20260504174302 75 91 0.0 0.0 0.00 0.00 0.00 37 1016.6
20260504174144 75 91 0.0 0.0 0.00 0.00 0.00 36 1016.7
20260504174043 75 109 0.0 0.0 0.00 0.00 0.00 36 1016.7
20260504173942 76 120 0.0 0.0 0.00 0.00 0.00 35 1016.7
20260504173842 76 296 0.0 0.0 0.00 0.00 0.00 35 1016.8
20260504173742 75 295 0.0 0.0 0.00 0.00 0.00 36 1016.8
20260504173642 75 295 0.0 0.0 0.00 0.00 0.00 36 1016.9
20260504173544 75 294 0.0 0.0 0.00 0.00 0.00 36 1016.8
20260504173444 75 260 0.0 0.0 0.00 0.00 0.00 35 1016.8
20260504173344 75 127 0.0 0.0 0.00 0.00 0.00 35 1016.8
20260504173242 75 68 0.0 0.0 0.00 0.00 0.00 35 1016.9
20260504173142 75 55 0.0 0.0 0.00 0.00 0.00 35 1016.8
20260504173055 75 76 0.0 0.0 0.00 0.00 0.00 35 1016.6
20260504173041 75 76 0.0 0.0 0.00 0.00 0.00 35 1016.8
20260504172941 75 69 0.0 0.0 0.00 0.00 0.00 35 1016.8
20260504172905 75 146 0.0 0.0 0.00 0.00 0.00 35 1016.8
20260504172743 75 146 0.0 0.0 0.00 0.00 0.00 37 1016.8
20260504172642 75 188 0.0 0.0 0.00 0.00 0.00 35 1016.8
20260504172542 75 189 0.0 0.0 0.00 0.00 0.00 35 1016.8
20260504172441 75 189 0.0 0.0 0.00 0.00 0.00 34 1016.7
20260504172340 76 182 0.0 0.0 0.00 0.00 0.00 35 1016.8
20260504172239 76 188 0.0 0.0 0.00 0.00 0.00 34 1016.8
20260504172143 76 154 0.0 0.0 0.00 0.00 0.00 35 1016.8
20260504172042 76 182 0.0 0.0 0.00 0.00 0.00 35 1016.7
20260504171940 76 329 0.0 0.0 0.00 0.00 0.00 35 1016.8
20260504171839 75 84 0.0 0.0 0.00 0.00 0.00 34 1016.8
20260504171737 75 153 0.0 0.0 0.00 0.00 0.00 34 1016.8
20260504171637 75 219 0.0 0.0 0.00 0.00 0.00 34 1016.8
20260504171541 75 323 0.0 0.0 0.00 0.00 0.00 34 1016.8
20260504171507 75 323 0.0 0.0 0.00 0.00 0.00 34 1016.7
20260504171441 75 315 0.0 0.0 0.00 0.00 0.00 33 1016.8
20260504171340 75 303 0.0 0.0 0.00 0.00 0.00 33 1016.8
20260504171240 75 269 0.0 0.0 0.00 0.00 0.00 34 1016.8
20260504171140 75 286 0.0 0.0 0.00 0.00 0.00 33 1016.8
20260504171040 75 305 0.0 0.0 0.00 0.00 0.00 34 1016.8
20260504170939 75 305 0.0 0.0 0.00 0.00 0.00 33 1016.8
20260504170902 75 305 0.0 0.0 0.00 0.00 0.00 34 1016.9
20260504170741 75 302 0.0 0.0 0.00 0.00 0.00 35 1017.0
20260504170701 75 302 0.0 0.0 0.00 0.00 0.00 34 1017.0
20260504170619 75 161 0.0 0.0 0.00 0.00 0.00 35 1017.0
20260504170517 75 157 0.0 0.0 0.00 0.00 0.00 33 1017.0
20260504170355 75 336 0.0 0.0 0.00 0.00 0.00 34 1017.0
20260504170229 74 355 0.0 0.0 0.00 0.00 0.00 35 1017.1
20260504160252 73 171 0.0 0.0 0.00 0.00 0.00 39 1018.5
20260504160218 73 171 0.0 0.0 0.00 0.00 0.00 39 1018.5
20260504151051 69 132 0.0 0.0 0.00 0.00 0.00 46 1018.7
20260504150951 69 130 0.0 0.0 0.00 0.00 0.00 47 1018.7
20260504150848 69 269 0.0 0.0 0.00 0.00 0.00 47 1018.7
20260504150751 69 153 0.0 0.0 0.00 0.00 0.00 48 1018.7
20260504150651 69 185 0.0 0.0 0.00 0.00 0.00 48 1018.7
20260504150550 69 185 0.0 0.0 0.00 0.00 0.00 49 1018.7
20260504150450 69 185 0.0 0.0 0.00 0.00 0.00 47 1018.7
20260504150411 69 187 0.0 0.0 0.00 0.00 0.00 47 1018.7
20260504150226 68 157 0.0 0.0 0.00 0.00 0.00 48 1018.7
20260504141245 64 186 0.0 0.0 0.00 0.00 0.00 60 1018.9
20260504141144 64 192 0.0 0.0 0.00 0.00 0.00 61 1018.9
20260504141046 64 159 0.0 0.0 0.00 0.00 0.00 61 1018.9
20260504140946 64 159 0.0 0.0 0.00 0.00 0.00 61 1018.9
20260504140847 64 161 0.0 0.0 0.00 0.00 0.00 62 1018.9
20260504140747 64 161 0.0 0.0 0.00 0.00 0.00 62 1018.9
20260504140651 64 161 0.0 0.0 0.00 0.00 0.00 61 1018.9
20260504140552 64 172 0.0 0.0 0.00 0.00 0.00 61 1018.9
20260504140453 64 173 0.0 0.0 0.00 0.00 0.00 62 1018.9
20260504140248 63 151 0.0 0.0 0.00 0.00 0.00 62 1018.8
20260504130751 58 350 0.0 0.0 0.00 0.00 0.00 72 1018.9
20260504130653 58 350 0.0 0.0 0.00 0.00 0.00 73 1018.9
20260504130553 58 350 0.0 0.0 0.00 0.00 0.00 73 1018.9
20260504130514 58 350 0.0 0.0 0.00 0.00 0.00 73 1019.0
20260504130356 58 350 0.0 0.0 0.00 0.00 0.00 72 1018.9
20260504130300 57 346 0.0 0.0 0.00 0.00 0.00 74 1019.0
20260504130227 57 346 0.0 0.0 0.00 0.00 0.00 74 1019.0
20260504120301 45 89 0.0 0.0 0.00 0.00 0.00 93 1018.4
20260504120229 45 89 0.0 0.0 0.00 0.00 0.00 93 1018.4
20260504110703 40 89 0.0 0.0 0.00 0.00 0.00 92 1018.7
20260504110542 40 89 0.0 0.0 0.00 0.00 0.00 92 1018.6
20260504110504 40 89 0.0 0.0 0.00 0.00 0.00 92 1018.6
20260504110243 40 89 0.0 0.0 0.00 0.00 0.00 92 1018.6
20260504100603 41 269 0.0 0.0 0.00 0.00 0.00 90 1018.6
20260504100447 41 269 0.0 0.0 0.00 0.00 0.00 90 1018.6
20260504100346 42 269 0.0 0.0 0.00 0.00 0.00 90 1018.6
20260504100248 42 269 0.0 0.0 0.00 0.00 0.00 90 1018.6
20260504100216 42 269 0.0 0.0 0.00 0.00 0.00 90 1018.7
20260504081852 44 269 0.0 0.0 0.00 0.00 0.00 87 1018.2
20260504081753 44 269 0.0 0.0 0.00 0.00 0.00 87 1018.2
20260504081654 44 269 0.0 0.0 0.00 0.00 0.00 87 1018.2
20260504081551 44 269 0.0 0.0 0.00 0.00 0.00 87 1018.2
20260504081538 44 269 0.0 0.0 0.00 0.00 0.00 87 1018.1
20260504081439 44 269 0.0 0.0 0.00 0.00 0.00 87 1018.1
20260504081400 44 269 0.0 0.0 0.00 0.00 0.00 87 1018.1
20260504081238 44 269 0.0 0.0 0.00 0.00 0.00 87 1018.1
20260504081138 44 269 0.0 0.0 0.00 0.00 0.00 87 1018.1
20260504081038 44 269 0.0 0.0 0.00 0.00 0.00 87 1018.1
20260504080939 44 269 0.0 0.0 0.00 0.00 0.00 87 1018.1
20260504080844 44 269 0.0 0.0 0.00 0.00 0.00 87 1018.1
20260504080805 44 269 0.0 0.0 0.00 0.00 0.00 87 1018.3
20260504080645 44 269 0.0 0.0 0.00 0.00 0.00 87 1018.2
20260504080546 44 269 0.0 0.0 0.00 0.00 0.00 87 1018.2
20260504080447 44 269 0.0 0.0 0.00 0.00 0.00 87 1018.2
20260504080248 44 269 0.0 0.0 0.00 0.00 0.00 87 1018.2
20260504070320 46 269 0.0 0.0 0.00 0.00 0.00 83 1018.2
20260504070228 46 269 0.0 0.0 0.00 0.00 0.00 83 1018.2
20260504060228 48 269 0.0 0.0 0.00 0.00 0.00 80 1018.4
20260504050747 50 269 0.0 0.0 0.00 0.00 0.00 78 1018.5
20260504050648 50 269 0.0 0.0 0.00 0.00 0.00 78 1018.5
20260504050605 50 269 0.0 0.0 0.00 0.00 0.00 78 1018.5
20260504050502 50 269 0.0 0.0 0.00 0.00 0.00 77 1018.5
20260504050355 50 269 0.0 0.0 0.00 0.00 0.00 77 1018.5
20260504050245 50 269 0.0 0.0 0.00 0.00 0.00 77 1018.5
20260504050215 50 269 0.0 0.0 0.00 0.00 0.00 77 1018.5
20260504050022 49 269 0.0 0.0 0.00 0.00 0.00 77 1018.6
20260504050001 50 269 0.0 0.0 0.00 0.00 0.00 77 1018.5
20260504045858 50 269 0.0 0.0 0.00 0.00 0.00 77 1018.5
20260504045756 50 269 0.0 0.0 0.00 0.00 0.00 77 1018.6
20260504045656 50 269 0.0 0.0 0.00 0.00 0.00 77 1018.5
20260504045615 50 269 0.0 0.0 0.00 0.00 0.00 77 1018.5
20260504045438 50 269 0.0 0.0 0.00 0.00 0.00 77 1018.5
20260504045357 50 269 0.0 0.0 0.00 0.00 0.00 77 1018.4
20260504045317 50 269 0.0 0.0 0.00 0.00 0.00 77 1018.4
20260504045156 50 269 0.0 0.0 0.00 0.00 0.00 77 1018.4
20260504045056 50 269 0.0 0.0 0.00 0.00 0.00 77 1018.5
20260504044956 50 269 0.0 0.0 0.00 0.00 0.00 77 1018.5
20260504044856 50 269 0.0 0.0 0.00 0.00 0.00 77 1018.4
20260504044816 50 269 0.0 0.0 0.00 0.00 0.00 77 1018.4
20260504044656 50 269 0.0 0.0 0.00 0.00 0.00 77 1018.5
20260504044555 50 269 0.0 0.0 0.00 0.00 0.00 77 1018.5
20260504044535 49 269 0.0 0.0 0.00 0.00 0.00 76 1018.6
20260504044453 50 269 0.0 0.0 0.00 0.00 0.00 76 1018.5
20260504044352 50 269 0.0 0.0 0.00 0.00 0.00 76 1018.4
20260504044250 50 269 0.0 0.0 0.00 0.00 0.00 76 1018.5
20260504044150 50 269 0.0 0.0 0.00 0.00 0.00 76 1018.5
20260504044050 50 269 0.0 0.0 0.00 0.00 0.00 76 1018.5
20260504043953 50 269 0.0 0.0 0.00 0.00 0.00 76 1018.5
20260504043853 50 269 0.0 0.0 0.00 0.00 0.00 76 1018.5
20260504043750 50 269 0.0 0.0 0.00 0.00 0.00 76 1018.5
20260504043650 50 269 0.0 0.0 0.00 0.00 0.00 76 1018.6
20260504043549 50 269 0.0 0.0 0.00 0.00 0.00 76 1018.5
20260504043449 50 269 0.0 0.0 0.00 0.00 0.00 76 1018.5
20260504043349 50 269 0.0 0.0 0.00 0.00 0.00 76 1018.6
20260504043251 50 269 0.0 0.0 0.00 0.00 0.00 77 1018.6
20260504043211 50 269 0.0 0.0 0.00 0.00 0.00 77 1018.7
20260504043048 50 269 0.0 0.0 0.00 0.00 0.00 76 1018.7
20260504043021 49 269 0.0 0.0 0.00 0.00 0.00 76 1018.8
20260504042949 50 269 0.0 0.0 0.00 0.00 0.00 76 1018.7
20260504042849 50 269 0.0 0.0 0.00 0.00 0.00 76 1018.7
20260504042748 50 269 0.0 0.0 0.00 0.00 0.00 76 1018.7
20260504042648 50 269 0.0 0.0 0.00 0.00 0.00 76 1018.8
20260504042552 50 269 0.0 0.0 0.00 0.00 0.00 76 1018.8
20260504042511 50 269 0.0 0.0 0.00 0.00 0.00 76 1018.7
20260504042350 50 269 0.0 0.0 0.00 0.00 0.00 76 1018.7
20260504042309 50 269 0.0 0.0 0.00 0.00 0.00 76 1018.8
20260504042148 50 269 0.0 0.0 0.00 0.00 0.00 76 1018.8
20260504042047 50 269 0.0 0.0 0.00 0.00 0.00 76 1018.8
20260504041947 50 269 0.0 0.0 0.00 0.00 0.00 76 1018.8
20260504041906 50 269 0.0 0.0 0.00 0.00 0.00 76 1018.8
20260504041749 50 269 0.0 0.0 0.00 0.00 0.00 76 1018.8
20260504041709 50 269 0.0 0.0 0.00 0.00 0.00 76 1018.8
20260504041610 49 269 0.0 0.0 0.00 0.00 0.00 76 1018.8
20260504041548 50 269 0.0 0.0 0.00 0.00 0.00 76 1018.7
20260504041448 50 269 0.0 0.0 0.00 0.00 0.00 76 1018.8
20260504041408 50 269 0.0 0.0 0.00 0.00 0.00 76 1018.8
20260504041247 50 269 0.0 0.0 0.00 0.00 0.00 76 1018.7
20260504041147 50 269 0.0 0.0 0.00 0.00 0.00 75 1018.7
20260504041107 50 269 0.0 0.0 0.00 0.00 0.00 75 1018.8
20260504040949 50 269 0.0 0.0 0.00 0.00 0.00 75 1018.8
20260504040849 50 269 0.0 0.0 0.00 0.00 0.00 75 1018.8
20260504040748 50 269 0.0 0.0 0.00 0.00 0.00 75 1018.8
20260504040709 50 269 0.0 0.0 0.00 0.00 0.00 75 1018.7
20260504040546 50 269 0.0 0.0 0.00 0.00 0.00 75 1018.7
20260504040446 50 269 0.0 0.0 0.00 0.00 0.00 75 1018.7
20260504040405 50 269 0.0 0.0 0.00 0.00 0.00 75 1018.7
20260504040302 50 269 0.0 0.0 0.00 0.00 0.00 75 1018.7
20260504040212 50 269 0.0 0.0 0.00 0.00 0.00 75 1018.7
20260504035959 50 269 0.0 0.0 0.00 0.00 0.00 75 1018.7
20260504035852 50 269 0.0 0.0 0.00 0.00 0.00 75 1018.7
20260504035752 50 269 0.0 0.0 0.00 0.00 0.00 75 1018.7
20260504035652 50 269 0.0 0.0 0.00 0.00 0.00 75 1018.7
20260504035551 50 269 0.0 0.0 0.00 0.00 0.00 75 1018.7
20260504035510 50 269 0.0 0.0 0.00 0.00 0.00 75 1018.8
20260504035351 50 269 0.0 0.0 0.00 0.00 0.00 75 1018.8
20260504035249 50 269 0.0 0.0 0.00 0.00 0.00 74 1018.8
20260504035148 50 269 0.0 0.0 0.00 0.00 0.00 74 1018.9
20260504035048 50 269 0.0 0.0 0.00 0.00 0.00 74 1018.9
20260504034949 50 269 0.0 0.0 0.00 0.00 0.00 74 1018.9
20260504034848 50 269 0.0 0.0 0.00 0.00 0.00 74 1018.9
20260504034807 50 269 0.0 0.0 0.00 0.00 0.00 74 1018.9
20260504034709 50 269 0.0 0.0 0.00 0.00 0.00 74 1018.9
20260504034548 50 269 0.0 0.0 0.00 0.00 0.00 74 1018.9
20260504034506 49 269 0.0 0.0 0.00 0.00 0.00 74 1019.0
20260504034447 50 269 0.0 0.0 0.00 0.00 0.00 74 1018.9
20260504034347 50 269 0.0 0.0 0.00 0.00 0.00 74 1018.9
20260504034247 50 269 0.0 0.0 0.00 0.00 0.00 73 1018.8
20260504034147 50 269 0.0 0.0 0.00 0.00 0.00 73 1018.8
20260504034046 50 269 0.0 0.0 0.00 0.00 0.00 73 1018.8
20260504034009 50 269 0.0 0.0 0.00 0.00 0.00 73 1018.8
20260504033905 50 269 0.0 0.0 0.00 0.00 0.00 73 1018.8
20260504033742 50 269 0.0 0.0 0.00 0.00 0.00 73 1018.8
20260504033643 50 269 0.0 0.0 0.00 0.00 0.00 73 1018.9
20260504033603 50 269 0.0 0.0 0.00 0.00 0.00 73 1018.9
20260504033442 50 269 0.0 0.0 0.00 0.00 0.00 72 1018.9
20260504033401 50 269 0.0 0.0 0.00 0.00 0.00 72 1018.9
20260504033239 50 269 0.0 0.0 0.00 0.00 0.00 72 1018.8
20260504033141 50 269 0.0 0.0 0.00 0.00 0.00 72 1018.9
20260504033041 50 269 0.0 0.0 0.00 0.00 0.00 72 1018.8
20260504033018 50 269 0.0 0.0 0.00 0.00 0.00 72 1018.9
20260504032941 50 269 0.0 0.0 0.00 0.00 0.00 72 1018.8
20260504032841 50 269 0.0 0.0 0.00 0.00 0.00 72 1018.9
20260504032739 50 269 0.0 0.0 0.00 0.00 0.00 72 1018.9
20260504032658 50 269 0.0 0.0 0.00 0.00 0.00 72 1018.9
20260504032557 50 269 0.0 0.0 0.00 0.00 0.00 72 1018.8
20260504032440 50 269 0.0 0.0 0.00 0.00 0.00 71 1018.9
20260504032340 50 269 0.0 0.0 0.00 0.00 0.00 71 1018.9
20260504032239 51 269 0.0 0.0 0.00 0.00 0.00 71 1018.9
20260504032139 51 269 0.0 0.0 0.00 0.00 0.00 70 1018.9
20260504032038 51 269 0.0 0.0 0.00 0.00 0.00 70 1018.9
20260504031938 51 269 0.0 0.0 0.00 0.00 0.00 70 1018.9
20260504031837 51 269 0.0 0.0 0.00 0.00 0.00 70 1018.9
20260504031800 51 269 0.0 0.0 0.00 0.00 0.00 70 1018.9
20260504031700 51 269 0.0 0.0 0.00 0.00 0.00 70 1018.8
20260504031539 51 269 0.0 0.0 0.00 0.00 0.00 70 1018.8
20260504031513 50 269 0.0 0.0 0.00 0.00 0.00 70 1019.0
20260504031458 51 269 0.0 0.0 0.00 0.00 0.00 70 1018.9
20260504031357 51 269 0.0 0.0 0.00 0.00 0.00 70 1018.9
20260504031256 51 269 0.0 0.0 0.00 0.00 0.00 70 1018.9
20260504031156 51 269 0.0 0.0 0.00 0.00 0.00 70 1018.8
20260504031056 51 269 0.0 0.0 0.00 0.00 0.00 70 1018.8
20260504030940 51 269 0.0 0.0 0.00 0.00 0.00 70 1018.8
20260504030859 51 269 0.0 0.0 0.00 0.00 0.00 70 1018.8
20260504030738 51 269 0.0 0.0 0.00 0.00 0.00 70 1018.8
20260504030638 51 269 0.0 0.0 0.00 0.00 0.00 70 1018.8
20260504030538 51 269 0.0 0.0 0.00 0.00 0.00 69 1018.8
20260504030457 51 269 0.0 0.0 0.00 0.00 0.00 69 1018.8
20260504030355 51 269 0.0 0.0 0.00 0.00 0.00 69 1018.8
20260504030259 51 269 0.0 0.0 0.00 0.00 0.00 69 1018.8
20260504030227 51 269 0.0 0.0 0.00 0.00 0.00 69 1018.8
20260504030013 51 269 0.0 0.0 0.00 0.00 0.00 69 1018.8
20260504025852 51 269 0.0 0.0 0.00 0.00 0.00 69 1018.8
20260504025752 51 269 0.0 0.0 0.00 0.00 0.00 69 1018.8
20260504025652 52 269 0.0 0.0 0.00 0.00 0.00 69 1018.8
20260504025616 52 269 0.0 0.0 0.00 0.00 0.00 69 1018.8
20260504025455 52 269 0.0 0.0 0.00 0.00 0.00 68 1018.8
20260504025356 52 269 0.0 0.0 0.00 0.00 0.00 68 1018.7
20260504025256 52 269 0.0 0.0 0.00 0.00 0.00 68 1018.7
20260504025216 52 269 0.0 0.0 0.00 0.00 0.00 68 1018.7
20260504025115 52 269 0.0 0.0 0.00 0.00 0.00 68 1018.7
20260504024954 52 269 0.0 0.0 0.00 0.00 0.00 68 1018.6
20260504024839 52 269 0.0 0.0 0.00 0.00 0.00 67 1018.6
20260504024740 52 269 0.0 0.0 0.00 0.00 0.00 67 1018.6
20260504024642 52 269 0.0 0.0 0.00 0.00 0.00 67 1018.6
20260504024556 51 269 0.0 0.0 0.00 0.00 0.00 67 1018.8
20260504024542 52 269 0.0 0.0 0.00 0.00 0.00 67 1018.6
20260504024442 52 269 0.0 0.0 0.00 0.00 0.00 67 1018.6
20260504024402 52 269 0.0 0.0 0.00 0.00 0.00 67 1018.6
20260504024241 52 269 0.0 0.0 0.00 0.00 0.00 67 1018.6
20260504024146 52 269 0.0 0.0 0.00 0.00 0.00 67 1018.6
20260504024047 52 269 0.0 0.0 0.00 0.00 0.00 67 1018.6
20260504023945 52 269 0.0 0.0 0.00 0.00 0.00 67 1018.6
20260504023846 52 269 0.0 0.0 0.00 0.00 0.00 67 1018.6
20260504023746 52 269 0.0 0.0 0.00 0.00 0.00 67 1018.6
20260504023647 52 269 0.0 0.0 0.00 0.00 0.00 67 1018.6
20260504023547 52 269 0.0 0.0 0.00 0.00 0.00 66 1018.5
20260504023446 52 269 0.0 0.0 0.00 0.00 0.00 66 1018.6
20260504023351 52 269 0.0 0.0 0.00 0.00 0.00 66 1018.5
20260504023310 52 269 0.0 0.0 0.00 0.00 0.00 66 1018.5
20260504023149 52 269 0.0 0.0 0.00 0.00 0.00 66 1018.5
20260504023049 52 269 0.0 0.0 0.00 0.00 0.00 66 1018.5
20260504023034 52 269 0.0 0.0 0.00 0.00 0.00 66 1018.6
20260504022950 52 269 0.0 0.0 0.00 0.00 0.00 66 1018.4
20260504022850 52 269 0.0 0.0 0.00 0.00 0.00 66 1018.4
20260504022751 52 269 0.0 0.0 0.00 0.00 0.00 66 1018.5
20260504022711 52 269 0.0 0.0 0.00 0.00 0.00 66 1018.4
20260504022554 52 269 0.0 0.0 0.00 0.00 0.00 66 1018.4
20260504022454 53 269 0.0 0.0 0.00 0.00 0.00 66 1018.4
20260504022354 52 269 0.0 0.0 0.00 0.00 0.00 66 1018.4
20260504022315 53 269 0.0 0.0 0.00 0.00 0.00 66 1018.4
20260504022155 53 269 0.0 0.0 0.00 0.00 0.00 66 1018.4
20260504022037 53 269 0.0 0.0 0.00 0.00 0.00 66 1018.4
20260504021941 53 269 0.0 0.0 0.00 0.00 0.00 65 1018.4
20260504021842 53 269 0.0 0.0 0.00 0.00 0.00 66 1018.4
20260504021742 53 269 0.0 0.0 0.00 0.00 0.00 66 1018.3
20260504021642 53 269 0.0 0.0 0.00 0.00 0.00 66 1018.3
20260504021602 53 269 0.0 0.0 0.00 0.00 0.00 66 1018.3
20260504021526 52 269 0.0 0.0 0.00 0.00 0.00 66 1018.5
20260504021501 53 269 0.0 0.0 0.00 0.00 0.00 66 1018.3
20260504021339 53 269 0.0 0.0 0.00 0.00 0.00 65 1018.3
20260504021240 53 269 0.0 0.0 0.00 0.00 0.00 65 1018.3
20260504021145 53 269 0.0 0.0 0.00 0.00 0.00 65 1018.3
20260504021106 53 269 0.0 0.0 0.00 0.00 0.00 65 1018.2
20260504020946 53 269 0.0 0.0 0.00 0.00 0.00 65 1018.2
20260504020846 53 269 0.0 0.0 0.00 0.00 0.00 66 1018.2
20260504020807 53 269 0.0 0.0 0.00 0.00 0.00 66 1018.2
20260504020647 53 269 0.0 0.0 0.00 0.00 0.00 66 1018.2
20260504020548 53 269 0.0 0.0 0.00 0.00 0.00 66 1018.2
20260504020453 53 269 0.0 0.0 0.00 0.00 0.00 65 1018.2
20260504020412 53 269 0.0 0.0 0.00 0.00 0.00 65 1018.2
20260504020300 53 269 0.0 0.0 0.00 0.00 0.00 65 1018.2
20260504020228 53 269 0.0 0.0 0.00 0.00 0.00 65 1018.2
20260504020033 52 269 0.0 0.0 0.00 0.00 0.00 65 1018.3
20260504015954 53 269 0.0 0.0 0.00 0.00 0.00 65 1018.2
20260504015839 53 269 0.0 0.0 0.00 0.00 0.00 65 1018.1
20260504015800 53 269 0.0 0.0 0.00 0.00 0.00 65 1018.1
20260504015639 53 269 0.0 0.0 0.00 0.00 0.00 64 1018.1
20260504015540 53 269 0.0 0.0 0.00 0.00 0.00 65 1018.1
20260504015441 53 269 0.0 0.0 0.00 0.00 0.00 64 1018.1
20260504015402 53 269 0.0 0.0 0.00 0.00 0.00 64 1018.1
20260504015242 53 269 0.0 0.0 0.00 0.00 0.00 63 1018.1
20260504015142 53 269 0.0 0.0 0.00 0.00 0.00 64 1018.1
20260504015107 53 269 0.0 0.0 0.00 0.00 0.00 64 1018.1
20260504014947 53 269 0.0 0.0 0.00 0.00 0.00 64 1018.1
20260504014848 53 269 0.0 0.0 0.00 0.00 0.00 64 1018.0
20260504014749 53 269 0.0 0.0 0.00 0.00 0.00 63 1018.1
20260504014650 53 269 0.0 0.0 0.00 0.00 0.00 63 1018.0
20260504014551 53 269 0.0 0.0 0.00 0.00 0.00 63 1018.0
20260504014540 53 269 0.0 0.0 0.00 0.00 0.00 63 1018.1
20260504014511 53 269 0.0 0.0 0.00 0.00 0.00 63 1018.0
20260504014355 53 269 0.0 0.0 0.00 0.00 0.00 64 1018.0
20260504014256 53 269 0.0 0.0 0.00 0.00 0.00 64 1018.0
20260504014215 53 269 0.0 0.0 0.00 0.00 0.00 63 1017.9
20260504014115 53 269 0.0 0.0 0.00 0.00 0.00 63 1018.0
20260504013954 53 269 0.0 0.0 0.00 0.00 0.00 63 1017.9
20260504013855 53 269 0.0 0.0 0.00 0.00 0.00 63 1017.9
20260504013756 54 269 0.0 0.0 0.00 0.00 0.00 63 1018.0
20260504013717 54 269 0.0 0.0 0.00 0.00 0.00 63 1017.9
20260504013541 54 269 0.0 0.0 0.00 0.00 0.00 63 1017.9
20260504013501 54 269 0.0 0.0 0.00 0.00 0.00 63 1017.9
20260504013340 54 269 0.0 0.0 0.00 0.00 0.00 63 1017.9
20260504013241 54 269 0.0 0.0 0.00 0.00 0.00 63 1017.7
20260504013142 54 269 0.0 0.0 0.00 0.00 0.00 62 1017.8
20260504013114 53 269 0.0 0.0 0.00 0.00 0.00 62 1017.9
20260504013043 54 269 0.0 0.0 0.00 0.00 0.00 62 1017.8
20260504012944 54 269 0.0 0.0 0.00 0.00 0.00 62 1017.8
20260504012849 54 269 0.0 0.0 0.00 0.00 0.00 62 1017.8
20260504012750 54 269 0.0 0.0 0.00 0.00 0.00 62 1017.8
20260504012709 54 269 0.0 0.0 0.00 0.00 0.00 62 1017.8
20260504012549 54 269 0.0 0.0 0.00 0.00 0.00 62 1017.7
20260504012450 54 269 0.0 0.0 0.00 0.00 0.00 61 1017.7
20260504012351 54 269 0.0 0.0 0.00 0.00 0.00 61 1017.7
20260504012312 54 269 0.0 0.0 0.00 0.00 0.00 61 1017.7
20260504012156 54 269 0.0 0.0 0.00 0.00 0.00 61 1017.7
20260504012037 54 269 0.0 0.0 0.00 0.00 0.00 60 1017.7
20260504011956 54 269 0.0 0.0 0.00 0.00 0.00 60 1017.7
20260504011916 55 269 0.0 0.0 0.00 0.00 0.00 60 1017.7
20260504011755 55 269 0.0 0.0 0.00 0.00 0.00 60 1017.7
20260504011714 55 269 0.0 0.0 0.00 0.00 0.00 60 1017.7
20260504011553 55 269 0.0 0.0 0.00 0.00 0.00 60 1017.7
20260504011526 54 269 0.0 0.0 0.00 0.00 0.00 60 1017.8
20260504011438 55 269 0.0 0.0 0.00 0.00 0.00 60 1017.7
20260504011339 55 269 0.0 0.0 0.00 0.00 0.00 60 1017.7
20260504011300 55 269 0.0 0.0 0.00 0.00 0.00 60 1017.6
20260504011200 55 269 0.0 0.0 0.00 0.00 0.00 60 1017.7
20260504011040 55 269 0.0 0.0 0.00 0.00 0.00 60 1017.7
20260504010940 55 269 0.0 0.0 0.00 0.00 0.00 60 1017.6
20260504010841 55 269 0.0 0.0 0.00 0.00 0.00 60 1017.6
20260504010743 55 269 0.0 0.0 0.00 0.00 0.00 60 1017.5
20260504010647 55 269 0.0 0.0 0.00 0.00 0.00 60 1017.6
20260504010548 55 269 0.0 0.0 0.00 0.00 0.00 59 1017.5
20260504010509 55 269 0.0 0.0 0.00 0.00 0.00 59 1017.6
20260504010349 55 269 0.0 0.0 0.00 0.00 0.00 59 1017.5
20260504010250 56 269 0.0 0.0 0.00 0.00 0.00 59 1017.5
20260504010222 56 269 0.0 0.0 0.00 0.00 0.00 59 1017.5
20260504010005 55 269 0.0 0.0 0.00 0.00 0.00 59 1017.6
20260504005949 56 269 0.0 0.0 0.00 0.00 0.00 59 1017.5
20260504005847 56 269 0.0 0.0 0.00 0.00 0.00 59 1017.4
20260504005747 56 269 0.0 0.0 0.00 0.00 0.00 59 1017.5
20260504005648 56 269 0.0 0.0 0.00 0.00 0.00 58 1017.4
20260504005548 56 269 0.0 0.0 0.00 0.00 0.00 58 1017.5
20260504005449 56 269 0.0 0.0 0.00 0.00 0.00 58 1017.4
20260504005353 56 269 0.0 0.0 0.00 0.00 0.00 58 1017.4
20260504005313 56 269 0.0 0.0 0.00 0.00 0.00 57 1017.4
20260504005213 56 269 0.0 0.0 0.00 0.00 0.00 57 1017.4
20260504005052 56 269 0.0 0.0 0.00 0.00 0.00 57 1017.3
20260504004953 56 269 0.0 0.0 0.00 0.00 0.00 57 1017.3
20260504004854 56 269 0.0 0.0 0.00 0.00 0.00 57 1017.3
20260504004755 57 269 0.0 0.0 0.00 0.00 0.00 56 1017.3
20260504004639 57 269 0.0 0.0 0.00 0.00 0.00 56 1017.3
20260504004540 57 269 0.0 0.0 0.00 0.00 0.00 55 1017.3
20260504004527 56 269 0.0 0.0 0.00 0.00 0.00 55 1017.4
20260504004442 57 269 0.0 0.0 0.00 0.00 0.00 55 1017.3
20260504004343 57 269 0.0 0.0 0.00 0.00 0.00 54 1017.3
20260504004243 57 269 0.0 0.0 0.00 0.00 0.00 54 1017.2
20260504004142 57 269 0.0 0.0 0.00 0.00 0.00 54 1017.2
20260504004103 57 269 0.0 0.0 0.00 0.00 0.00 54 1017.2
20260504004007 57 269 0.0 0.0 0.00 0.00 0.00 54 1017.2
20260504003846 57 269 0.0 0.0 0.00 0.00 0.00 54 1017.3
20260504003747 58 269 0.0 0.0 0.00 0.00 0.00 54 1017.2
20260504003648 58 269 0.0 0.0 0.00 0.00 0.00 54 1017.2
20260504003545 58 269 0.0 0.0 0.00 0.00 0.00 54 1017.2
20260504003445 58 269 0.0 0.0 0.00 0.00 0.00 53 1017.2
20260504003346 58 269 0.0 0.0 0.00 0.00 0.00 53 1017.2
20260504003250 58 269 0.0 0.0 0.00 0.00 0.00 53 1017.2
20260504003210 58 269 0.0 0.0 0.00 0.00 0.00 53 1017.2
20260504003108 58 269 0.0 0.0 0.00 0.00 0.00 53 1017.2
20260504003038 58 269 0.0 0.0 0.00 0.00 0.00 53 1017.3
20260504003008 58 269 0.0 0.0 0.00 0.00 0.00 52 1017.1
20260504002847 58 269 0.0 0.0 0.00 0.00 0.00 52 1017.1
20260504002747 58 269 0.0 0.0 0.00 0.00 0.00 52 1017.1
20260504002648 59 269 0.0 0.0 0.00 0.00 0.00 52 1017.1
20260504002549 59 269 0.0 0.0 0.00 0.00 0.00 52 1017.1
20260504002453 59 269 0.0 0.0 0.00 0.00 0.00 52 1017.1
20260504002413 59 269 0.0 0.0 0.00 0.00 0.00 51 1017.1
20260504002252 59 269 0.0 0.0 0.00 0.00 0.00 51 1017.1
20260504002152 59 269 0.0 0.0 0.00 0.00 0.00 50 1017.1
20260504002053 59 269 0.0 0.0 0.00 0.00 0.00 50 1017.1
20260504001954 59 269 0.0 0.0 0.00 0.00 0.00 50 1017.0
20260504001854 60 269 0.0 0.0 0.00 0.00 0.00 49 1017.0
20260504001739 60 269 0.0 0.0 0.00 0.00 0.00 49 1017.1
20260504001700 60 269 0.0 0.0 0.00 0.00 0.00 48 1017.0
20260504001540 60 269 0.0 0.0 0.00 0.00 0.00 48 1017.0
20260504001519 60 269 0.0 0.0 0.00 0.00 0.00 48 1017.1
20260504001441 60 269 0.0 0.0 0.00 0.00 0.00 48 1017.0
20260504001341 60 269 0.0 0.0 0.00 0.00 0.00 48 1017.0
20260504001240 60 269 0.0 0.0 0.00 0.00 0.00 47 1017.0
20260504001141 60 269 0.0 0.0 0.00 0.00 0.00 47 1017.0
20260504001046 61 269 0.0 0.0 0.00 0.00 0.00 47 1017.0
20260504001007 61 269 0.0 0.0 0.00 0.00 0.00 47 1017.0
20260504000847 61 269 0.0 0.0 0.00 0.00 0.00 47 1016.9
20260504000748 61 269 0.0 0.0 0.00 0.00 0.00 47 1016.9
20260504000649 61 269 0.0 0.0 0.00 0.00 0.00 47 1016.9
20260504000609 61 269 0.0 0.0 0.00 0.00 0.00 47 1016.9
20260504000449 61 269 0.0 0.0 0.00 0.00 0.00 47 1016.9
20260504000354 61 269 0.0 0.0 0.00 0.00 0.00 46 1016.9
20260504000252 61 269 0.0 0.0 0.00 0.00 0.00 46 1016.9
20260504000219 61 269 0.0 0.0 0.00 0.00 0.00 46 1016.9
20260503235948 61 269 0.0 0.0 0.00 0.00 0.00 46 1017.0
20260503235849 62 269 0.0 0.0 0.00 0.00 0.00 46 1016.9
20260503235750 62 269 0.0 0.0 0.00 0.00 0.00 45 1016.9
20260503235655 62 269 0.0 0.0 0.00 0.00 0.00 45 1016.9
20260503235551 62 24 0.0 0.0 0.00 0.00 0.00 45 1016.8
20260503235451 62 24 0.0 0.0 0.00 0.00 0.00 45 1016.8
20260503235352 62 24 0.0 0.0 0.00 0.00 0.00 44 1016.8
20260503235253 62 24 0.0 0.0 0.00 0.00 0.00 44 1016.8
20260503235213 62 24 0.0 0.0 0.00 0.00 0.00 44 1016.9
20260503235053 63 308 0.0 0.0 0.00 0.00 0.00 44 1016.9
20260503234959 63 314 0.0 0.0 0.00 0.00 0.00 44 1016.8
20260503234838 63 314 0.0 0.0 0.00 0.00 0.00 44 1016.9
20260503234739 63 314 0.0 0.0 0.00 0.00 0.00 43 1016.9
20260503234640 63 314 0.0 0.0 0.00 0.00 0.00 44 1016.8
20260503234554 62 314 0.0 0.0 0.00 0.00 0.00 44 1016.9
20260503234540 63 314 0.0 0.0 0.00 0.00 0.00 44 1016.8
20260503234441 63 314 0.0 0.0 0.00 0.00 0.00 44 1016.8
20260503234342 63 314 0.0 0.0 0.00 0.00 0.00 43 1016.8
20260503234246 63 314 0.0 0.0 0.00 0.00 0.00 43 1016.8
20260503234144 63 314 0.0 0.0 0.00 0.00 0.00 43 1016.8
20260503234045 64 314 0.0 0.0 0.00 0.00 0.00 43 1016.9
20260503234006 64 314 0.0 0.0 0.00 0.00 0.00 42 1016.8
20260503233846 64 314 0.0 0.0 0.00 0.00 0.00 42 1016.8
20260503233747 64 314 0.0 0.0 0.00 0.00 0.00 42 1016.8
20260503233648 64 314 0.0 0.0 0.00 0.00 0.00 42 1016.8
20260503233553 64 314 0.0 0.0 0.00 0.00 0.00 42 1016.8
20260503233453 64 314 0.0 0.0 0.00 0.00 0.00 42 1016.8
20260503233354 64 314 0.0 0.0 0.00 0.00 0.00 42 1016.8
20260503233255 64 314 0.0 0.0 0.00 0.00 0.00 41 1016.9
20260503233155 64 314 0.0 0.0 0.00 0.00 0.00 40 1016.8
20260503233109 64 314 0.0 0.0 0.00 0.00 0.00 42 1017.0
20260503233055 64 314 0.0 0.0 0.00 0.00 0.00 42 1016.8
20260503232940 64 314 0.0 0.0 0.00 0.00 0.00 40 1016.8
20260503232841 64 314 0.0 0.0 0.00 0.00 0.00 39 1016.8
20260503232801 65 314 0.0 0.0 0.00 0.00 0.00 39 1016.9
20260503232641 65 314 0.0 0.0 0.00 0.00 0.00 40 1016.8
20260503232542 65 314 0.0 0.0 0.00 0.00 0.00 39 1016.9
20260503232442 65 314 0.0 0.0 0.00 0.00 0.00 39 1016.8
20260503232343 65 80 0.0 0.0 0.00 0.00 0.00 39 1016.9
20260503232244 65 188 0.0 0.0 0.00 0.00 0.00 39 1016.8
20260503232149 65 188 0.0 0.0 0.00 0.00 0.00 39 1016.7
20260503232051 65 164 0.0 0.0 0.00 0.00 0.00 40 1016.8
20260503231952 65 235 0.0 0.0 0.00 0.00 0.00 39 1016.8
20260503231852 65 152 0.0 0.0 0.00 0.00 0.00 39 1016.8
20260503231752 65 173 0.0 0.0 0.00 0.00 0.00 39 1016.8
20260503231654 65 173 0.0 0.0 0.00 0.00 0.00 38 1016.8
20260503231539 65 173 0.0 0.0 0.00 0.00 0.00 38 1016.8
20260503231514 64 172 0.0 0.0 0.00 0.00 0.00 38 1016.9
20260503231440 65 172 0.0 0.0 0.00 0.00 0.00 38 1016.8
20260503231341 65 33 0.0 0.0 0.00 0.00 0.00 38 1016.7
20260503231241 65 33 0.0 0.0 0.00 0.00 0.00 40 1016.7
20260503231141 65 33 0.0 0.0 0.00 0.00 0.00 40 1016.8
20260503231102 65 33 0.0 0.0 0.00 0.00 0.00 39 1016.8
20260503230942 65 33 0.0 0.0 0.00 0.00 0.00 38 1016.8
20260503230847 65 33 0.0 0.0 0.00 0.00 0.00 39 1016.8
20260503230805 65 33 0.0 0.0 0.00 0.00 0.00 39 1016.9
20260503230643 65 33 0.0 0.0 0.00 0.00 0.00 40 1016.8
20260503230544 65 177 0.0 0.0 0.00 0.00 0.00 39 1016.8
20260503230444 65 177 0.0 0.0 0.00 0.00 0.00 39 1016.8
20260503230346 66 61 0.0 0.0 0.00 0.00 0.00 39 1016.9
20260503230303 66 61 0.0 0.0 0.00 0.00 0.00 39 1016.9
20260503230214 66 61 0.0 0.0 0.00 0.00 0.00 39 1016.8
20260503230024 65 61 0.0 0.0 0.00 0.00 0.00 39 1017.0
20260503225942 66 61 0.0 0.0 0.00 0.00 0.00 39 1016.8
20260503225842 66 61 0.0 0.0 0.00 0.00 0.00 38 1016.8
20260503225803 66 61 0.0 0.0 0.00 0.00 0.00 37 1016.9
20260503225642 66 61 0.0 0.0 0.00 0.00 0.00 36 1016.8
20260503225544 66 61 0.0 0.0 0.00 0.00 0.00 37 1016.9
20260503225449 66 61 0.0 0.0 0.00 0.00 0.00 36 1016.8
20260503225350 66 61 0.0 0.0 0.00 0.00 0.00 36 1016.8
20260503225250 66 61 0.0 0.0 0.00 0.00 0.00 36 1016.8
20260503225151 66 61 0.0 0.0 0.00 0.00 0.00 36 1016.8
20260503225052 66 61 0.0 0.0 0.00 0.00 0.00 36 1016.9
20260503224953 66 61 0.0 0.0 0.00 0.00 0.00 36 1016.9
20260503224838 66 288 0.0 0.0 0.00 0.00 0.00 36 1016.8
20260503224739 66 288 0.0 0.0 0.00 0.00 0.00 36 1016.9
20260503224639 66 288 0.0 0.0 0.00 0.00 0.00 36 1016.9
20260503224556 66 288 0.0 0.0 0.00 0.00 0.00 36 1017.1
20260503224540 66 288 0.0 0.0 0.00 0.00 0.00 36 1016.9
20260503224441 66 288 0.0 0.0 0.00 0.00 0.00 36 1016.9
20260503224342 66 131 0.0 0.0 0.00 0.00 0.00 36 1016.9
20260503224243 66 131 0.0 0.0 0.00 0.00 0.00 36 1016.9
20260503224147 66 131 0.0 0.0 0.00 0.00 0.00 37 1016.9
20260503224048 66 159 0.0 0.0 0.00 0.00 0.00 38 1016.9
20260503223949 66 159 0.0 0.0 0.00 0.00 0.00 38 1016.9